Wind_Speed
18 20 23 25 26 28 31 32 33 34 35 36 36 36 36 35 35 35 33 30 28 28 28 29 30 30 31 33 34 35 35 34 34 35 35 34 35 35 35 35 35 36 37 38
13 15 17 20 23 26 29 30 32 33 33 33 34 34 34 34 33 31 30 29 28 29 30 31 31 31 32 34 35 35 35 35 36 36 35 34 34 34 34 35 35 36 36 37
10 11 13 16 19 23 26 27 29 30 30 31 33 32 32 32 31 30 30 30 31 31 31 31 31 31 32 33 33 35 35 36 36 36 35 35 34 34 34 35 35 36 36 36
9 10 11 13 16 18 21 23 25 27 27 28 30 31 30 31 31 32 33 33 33 32 32 31 31 31 32 33 34 35 35 35 35 35 35 35 34 34 34 34 35 35 36 37
10 12 13 14 15 16 18 19 21 22 23 25 27 30 29 30 32 33 34 33 33 32 30 29 29 30 31 32 33 34 34 33 33 33 33 33 33 34 34 34 35 35 36 36
10 11 13 13 14 15 16 18 19 20 21 23 25 26 26 27 29 30 30 29 28 27 26 27 27 28 29 30 32 32 32 32 32 31 30 31 31 32 33 34 34 35 35 36
9 10 11 12 13 13 14 15 16 17 17 19 21 22 22 23 24 24 24 24 24 24 25 25 26 27 28 30 31 31 31 31 30 29 29 30 31 31 32 33 33 34 34 35
5 7 9 11 12 13 13 14 14 15 15 15 18 19 19 21 22 22 23 23 23 23 24 25 26 27 28 29 29 30 30 30 30 30 30 30 31 31 32 33 34 34 34 35
4 5 8 10 11 13 13 14 14 15 15 15 16 18 19 20 21 21 22 22 23 23 24 25 26 27 28 29 30 30 31 31 32 32 32 33 33 34 34 34 34 35 35 35
6 6 7 10 11 12 13 13 14 16 17 17 17 18 19 20 21 22 22 23 23 25 26 27 28 29 30 31 32 32 33 34 35 35 36 36 37 37 36 36 36 35 35 35
8 9 9 11 11 13 13 13 14 16 18 20 20 20 20 22 24 25 26 26 27 28 29 31 32 34 34 35 36 36 37 38 38 39 39 39 39 39 38 38 37 36 36 36
9 10 11 12 13 14 14 15 17 20 21 23 25 26 24 26 27 29 30 31 31 32 33 35 36 38 39 40 41 42 42 42 43 42 42 42 42 41 41 40 39 38 37 36
11 11 12 13 15 16 18 19 21 23 25 26 28 31 29 30 31 32 33 34 35 36 38 39 41 42 44 46 47 48 48 47 47 47 46 45 45 44 43 42 40 39 38 36
12 12 14 16 18 19 20 21 24 26 28 29 30 33 34 35 35 36 37 38 39 40 42 43 45 48 50 51 52 53 53 53 52 52 51 49 48 46 45 43 41 40 38 37
14 15 16 17 19 20 21 22 24 27 30 32 33 34 35 36 38 39 40 42 43 45 47 49 51 53 54 56 57 57 58 58 57 57 56 54 52 49 47 45 43 41 38 37
17 18 18 19 21 23 24 25 27 28 31 33 34 35 37 38 40 42 43 45 48 50 52 54 56 58 59 60 61 62 62 62 62 62 61 59 56 53 50 47 44 42 39 36
19 21 21 22 24 27 27 28 30 31 32 34 36 38 39 40 42 45 47 50 53 55 58 60 62 63 65 66 67 68 68 68 66 65 64 61 58 55 52 49 45 42 39 35
21 23 25 25 27 29 30 30 32 34 36 38 39 41 42 44 47 50 54 56 59 61 64 66 67 69 71 72 72 73 72 71 69 67 65 63 60 57 54 50 45 41 39 35
23 25 27 29 30 33 34 36 38 39 41 43 44 46 48 52 54 56 60 63 66 68 70 72 74 75 75 76 76 75 75 73 71 69 66 63 60 57 54 51 47 43 40 36
25 27 29 31 34 36 38 40 42 44 46 47 49 52 55 58 61 62 65 67 69 72 74 76 77 78 78 78 78 76 74 71 67 63 59 56 54 51 49 48 45 42 39 37
26 28 30 33 35 38 41 42 45 47 50 52 55 58 61 64 66 68 71 73 76 77 78 78 78 76 75 73 72 69 65 61 58 54 51 49 48 46 44 43 42 40 38 37
29 31 33 35 37 40 42 45 47 49 52 56 58 61 65 68 71 73 76 78 78 78 76 74 72 68 65 63 61 57 53 50 48 46 44 44 43 43 43 41 41 40 39 38
31 33 35 37 39 42 44 47 50 53 56 59 63 66 70 73 75 77 77 76 73 70 67 63 60 57 53 50 48 45 43 42 41 39 39 39 39 39 40 40 39 41 40 38
33 35 37 39 41 43 47 50 54 57 61 65 68 72 74 76 76 75 72 67 63 58 55 52 48 45 41 40 39 39 39 38 38 37 37 36 36 37 38 40 41 40 38 38
35 37 39 41 44 47 50 54 58 62 65 69 72 73 74 73 69 66 61 55 51 47 45 43 41 38 37 36 37 38 39 39 37 36 34 33 34 35 36 39 43 42 37 36
37 39 42 45 48 52 55 59 64 67 70 73 73 71 68 65 61 57 51 47 44 42 40 38 38 37 36 37 37 38 38 38 37 35 32 31 30 31 33 36 40 41 38 37
Wind_Direction
226 226 227 229 230 233 237 240 243 246 249 253 256 259 261 263 265 267 270 274 278 286 292 294 294 292 290 290 292 294 295 297 299 300 301 301 300 299 296 293 289 286 283 280
222 226 229 230 230 232 236 240 243 246 247 250 253 256 259 262 263 267 270 274 279 285 288 291 290 288 288 291 294 296 297 300 303 304 304 303 302 301 298 294 291 287 284 282
230 234 236 235 235 235 238 241 244 246 247 250 252 253 256 260 264 267 270 274 278 282 285 286 286 286 287 290 294 297 299 303 305 306 307 307 305 302 299 296 292 289 286 284
246 250 249 249 248 247 247 249 251 251 252 252 255 255 255 260 265 269 273 276 279 281 282 282 283 284 287 292 295 298 301 303 306 307 308 309 308 306 303 300 296 292 289 285
260 259 259 256 255 256 256 258 259 259 259 258 258 260 261 262 264 268 272 275 277 279 278 278 281 283 286 291 295 298 301 304 306 308 308 308 308 307 305 303 300 295 292 288
262 263 262 262 261 261 264 265 266 266 265 265 265 266 267 266 267 269 272 273 274 274 273 274 278 283 287 291 294 296 299 301 303 306 307 308 309 310 308 307 303 299 295 291
266 266 269 269 270 271 273 275 276 275 273 271 270 271 271 269 270 270 270 271 271 272 273 275 279 283 286 287 288 290 292 295 299 302 306 309 311 312 312 310 308 304 299 295
276 277 275 275 276 278 281 283 284 282 279 274 274 274 273 272 272 272 272 272 272 273 275 277 279 280 280 281 283 285 289 293 298 302 306 310 312 314 313 311 310 307 303 298
309 299 290 288 286 285 287 286 288 289 285 279 276 276 276 278 278 279 278 277 277 278 278 279 279 279 280 282 285 288 292 296 300 304 307 310 312 313 314 313 311 309 306 302
332 321 307 301 297 297 296 296 293 293 292 288 283 280 280 283 288 288 288 287 286 285 285 284 283 284 285 287 289 292 296 299 303 305 307 309 310 311 312 312 311 310 307 304
339 332 323 314 310 309 305 301 299 297 296 297 294 292 292 292 293 293 292 290 288 287 285 284 285 287 289 292 294 297 299 301 303 304 305 306 307 308 309 310 309 308 306 305
332 325 320 316 315 311 307 305 303 302 303 302 303 301 300 297 294 292 291 289 288 287 286 287 289 292 294 296 298 299 300 300 301 302 303 303 304 304 304 306 307 306 305 304
329 320 315 313 312 311 309 308 306 305 303 303 304 303 301 298 295 292 291 290 288 288 288 290 292 294 295 296 297 298 298 298 299 300 300 300 300 300 300 302 303 303 303 303
327 322 314 311 308 307 307 305 303 302 301 301 300 298 297 296 294 293 291 290 289 289 290 292 293 293 294 295 295 296 297 297 297 297 297 297 297 297 297 297 298 299 299 300
322 321 316 310 305 304 303 299 295 294 295 296 296 294 294 293 292 292 291 291 290 291 291 291 291 291 291 293 294 294 294 294 294 294 294 294 294 293 293 293 294 294 295 296
319 317 315 312 308 306 304 302 298 295 294 294 294 294 294 293 292 291 290 290 290 290 290 290 290 290 290 291 291 290 291 290 290 290 290 290 290 289 289 289 289 289 290 291
316 314 313 311 308 306 305 304 301 299 299 298 298 298 298 297 296 294 293 292 291 291 290 290 289 289 288 288 287 287 287 287 287 287 287 286 286 285 285 285 284 283 283 284
315 313 311 311 308 307 308 305 304 303 303 302 301 301 300 298 297 295 294 292 291 290 289 288 287 287 286 286 286 286 286 286 286 286 284 283 282 280 280 279 278 276 277 277
316 314 313 313 312 311 310 310 310 309 307 306 305 303 300 298 297 294 292 291 290 290 289 289 289 289 288 288 287 287 287 287 286 285 283 281 279 276 274 272 270 269 268 268
316 314 313 314 313 312 312 312 312 311 308 308 305 302 299 298 297 296 294 293 293 292 292 292 291 291 290 290 289 289 288 288 286 284 281 278 274 271 268 265 262 261 259 258
314 314 314 315 314 312 313 312 312 308 308 306 304 304 303 302 301 300 298 297 296 295 295 294 293 293 292 292 291 290 289 288 286 282 278 274 270 267 263 258 255 252 251 250
318 318 317 316 315 313 314 312 311 310 309 308 307 306 304 303 302 300 299 298 298 298 297 297 296 295 295 294 293 292 290 288 285 281 277 273 267 263 257 253 249 244 244 242
321 320 319 319 318 317 317 316 315 314 312 310 309 307 306 305 304 302 302 302 302 301 301 300 299 299 299 298 297 295 293 291 288 283 279 274 267 261 254 249 244 238 237 235
323 323 323 322 321 320 319 319 317 315 314 312 311 309 308 307 307 307 306 306 305 305 304 303 303 303 302 300 299 298 296 295 292 287 282 273 267 260 252 245 238 234 232 228
327 327 325 325 325 323 322 320 318 317 315 314 313 312 311 311 311 310 310 309 308 307 306 306 306 305 304 301 300 299 298 296 294 290 284 275 269 258 248 239 233 228 224 220
328 328 327 327 326 325 324 322 320 319 318 317 316 315 315 315 315 314 313 312 310 309 308 308 307 307 306 304 304 302 299 298 296 292 284 277 269 255 242 234 226 221 217 215
Height
5857 5860 5861 5863 5865 5868 5869 5871 5873 5875 5876 5878 5878 5879 5880 5880 5880 5880 5879 5879 5878 5877 5876 5874 5872 5869 5867 5864 5862 5860 5857 5855 5853 5850 5848 5845 5842 5840 5838 5836 5834 5832 5830 5828
5857 5858 5859 5860 5862 5863 5865 5866 5868 5869 5870 5871 5872 5872 5873 5873 5873 5873 5873 5872 5872 5871 5870 5868 5866 5863 5860 5858 5855 5853 5850 5847 5845 5843 5841 5838 5835 5833 5830 5828 5826 5823 5822 5820
5856 5858 5858 5859 5859 5860 5861 5863 5863 5864 5865 5866 5867 5867 5868 5867 5867 5867 5867 5867 5866 5865 5864 5862 5860 5857 5854 5851 5849 5846 5843 5841 5838 5835 5833 5830 5828 5825 5822 5820 5817 5815 5813 5811
5856 5857 5857 5857 5858 5858 5859 5859 5860 5860 5861 5862 5862 5862 5863 5863 5862 5862 5861 5861 5860 5859 5858 5856 5853 5851 5848 5845 5842 5839 5836 5834 5831 5828 5825 5822 5819 5817 5814 5811 5809 5806 5804 5802
5856 5856 5856 5856 5857 5856 5856 5856 5856 5856 5857 5857 5857 5857 5858 5858 5857 5856 5856 5855 5854 5853 5852 5849 5847 5845 5842 5839 5836 5833 5830 5827 5824 5822 5819 5815 5812 5809 5806 5803 5800 5797 5795 5793
5854 5854 5854 5854 5854 5854 5854 5854 5853 5853 5853 5853 5852 5852 5853 5852 5851 5851 5850 5849 5848 5847 5845 5843 5841 5839 5836 5833 5830 5827 5824 5821 5819 5816 5812 5809 5806 5802 5798 5794 5791 5788 5786 5783
5853 5853 5853 5852 5852 5852 5852 5852 5851 5850 5849 5849 5848 5847 5848 5846 5845 5845 5844 5843 5842 5841 5840 5838 5835 5833 5830 5827 5824 5821 5818 5816 5813 5810 5806 5802 5799 5795 5791 5787 5783 5780 5777 5774
5852 5852 5851 5851 5850 5850 5849 5849 5849 5848 5846 5845 5844 5844 5844 5842 5841 5840 5839 5838 5837 5835 5834 5832 5829 5827 5824 5821 5817 5815 5812 5809 5806 5802 5799 5795 5791 5787 5783 5779 5775 5771 5768 5765
5851 5851 5850 5849 5848 5847 5846 5846 5845 5844 5843 5842 5841 5840 5839 5838 5837 5835 5834 5833 5831 5829 5827 5825 5822 5819 5816 5813 5810 5807 5804 5801 5797 5794 5790 5787 5783 5779 5775 5771 5767 5763 5759 5756
5850 5850 5849 5847 5846 5845 5844 5843 5842 5841 5839 5838 5838 5836 5836 5834 5832 5830 5828 5826 5824 5822 5819 5816 5813 5810 5807 5804 5802 5798 5795 5792 5788 5785 5781 5778 5774 5770 5766 5762 5758 5754 5750 5746
5849 5848 5847 5845 5844 5843 5842 5841 5839 5837 5836 5834 5832 5833 5831 5829 5827 5824 5822 5819 5816 5814 5811 5808 5805 5801 5798 5795 5792 5788 5785 5782 5778 5775 5772 5768 5765 5761 5757 5753 5749 5745 5741 5737
5847 5846 5845 5844 5842 5840 5838 5837 5835 5834 5832 5829 5827 5828 5825 5822 5819 5816 5813 5810 5807 5805 5801 5798 5795 5791 5788 5784 5781 5778 5775 5771 5768 5765 5761 5758 5755 5751 5747 5744 5740 5736 5732 5729
5846 5845 5843 5841 5841 5838 5835 5833 5831 5829 5827 5824 5821 5820 5816 5813 5810 5807 5804 5801 5798 5794 5791 5788 5784 5780 5777 5773 5770 5766 5763 5760 5757 5753 5750 5747 5744 5740 5737 5734 5731 5727 5723 5720
5844 5843 5842 5840 5837 5834 5832 5830 5826 5824 5821 5818 5816 5812 5808 5804 5800 5797 5794 5791 5787 5784 5780 5777 5773 5769 5765 5761 5758 5754 5751 5747 5744 5741 5738 5735 5732 5729 5727 5724 5720 5717 5714 5711
5842 5841 5838 5836 5833 5830 5828 5826 5823 5819 5815 5812 5808 5804 5800 5796 5792 5788 5784 5780 5777 5773 5769 5765 5761 5757 5752 5748 5744 5740 5737 5733 5729 5726 5724 5721 5719 5717 5715 5712 5709 5707 5704 5702
5839 5837 5834 5832 5828 5825 5823 5820 5816 5813 5809 5805 5800 5796 5792 5788 5784 5779 5774 5770 5765 5761 5756 5752 5747 5742 5737 5733 5729 5725 5721 5717 5714 5711 5708 5706 5704 5702 5701 5699 5698 5696 5694 5692
5835 5832 5830 5827 5823 5820 5817 5814 5809 5805 5801 5797 5792 5789 5783 5778 5773 5768 5762 5757 5752 5746 5741 5736 5730 5725 5720 5715 5710 5707 5703 5699 5696 5693 5691 5689 5687 5687 5686 5685 5685 5684 5683 5681
5831 5827 5824 5821 5819 5814 5813 5807 5802 5798 5793 5788 5782 5777 5772 5766 5761 5755 5748 5742 5736 5730 5724 5717 5711 5706 5700 5695 5690 5686 5682 5678 5675 5673 5671 5669 5669 5669 5669 5670 5670 5671 5670 5670
5826 5822 5818 5815 5811 5807 5803 5798 5793 5788 5783 5777 5771 5765 5759 5753 5748 5742 5733 5726 5718 5711 5703 5696 5690 5683 5677 5671 5665 5662 5658 5655 5652 5650 5649 5648 5648 5649 5650 5652 5654 5656 5657 5659
5821 5817 5814 5809 5804 5799 5796 5789 5783 5778 5771 5766 5759 5752 5745 5738 5732 5726 5716 5707 5699 5690 5682 5674 5667 5659 5653 5646 5640 5637 5633 5630 5627 5626 5625 5625 5626 5628 5630 5633 5637 5640 5643 5646
5817 5813 5808 5803 5798 5792 5787 5780 5775 5769 5763 5754 5746 5738 5729 5720 5712 5704 5695 5685 5676 5667 5658 5649 5642 5635 5628 5621 5616 5613 5609 5606 5604 5604 5604 5604 5605 5608 5611 5615 5620 5624 5629 5633
5811 5806 5801 5796 5790 5787 5779 5772 5766 5759 5750 5741 5732 5723 5713 5704 5694 5683 5673 5662 5652 5643 5634 5625 5617 5612 5605 5598 5593 5591 5588 5585 5584 5583 5584 5584 5586 5589 5593 5598 5603 5609 5614 5620
5804 5800 5794 5789 5784 5776 5769 5761 5754 5746 5737 5728 5718 5707 5696 5685 5673 5662 5650 5640 5629 5620 5611 5604 5597 5592 5587 5581 5576 5573 5571 5568 5567 5566 5566 5566 5568 5570 5575 5580 5586 5592 5599 5606
5798 5793 5787 5781 5775 5768 5760 5752 5743 5733 5723 5712 5700 5688 5676 5663 5651 5639 5628 5618 5609 5601 5593 5587 5581 5576 5573 5568 5563 5560 5557 5554 5552 5550 5549 5549 5551 5553 5557 5564 5571 5577 5585 5593
5792 5786 5780 5773 5767 5759 5751 5741 5731 5720 5709 5696 5683 5670 5656 5642 5631 5620 5610 5601 5593 5586 5580 5574 5569 5564 5561 5557 5553 5549 5545 5541 5538 5536 5535 5534 5535 5536 5541 5547 5554 5563 5572 5582
5786 5780 5773 5765 5757 5749 5740 5729 5717 5705 5693 5679 5666 5653 5639 5625 5613 5604 5595 5588 5581 5575 5569 5564 5559 5554 5550 5546 5541 5537 5532 5528 5525 5523 5521 5521 5521 5523 5527 5532 5540 5550 5561 5571